User: anonymous
Location: Unspecified
(0.0000°N, 0.0000°E)
Time: 13:33:07
(UTC+02:00)
Language:

ITAMSAT 1 - Orbit

View from above orbital plane
View from above orbital plane
View from above satellite
View from above satellite

Ground track
Ground track

The orbit data is extracted from the following two-line orbital elements,

1 22826U 93061D   14260.11291042  .00000154  00000-0  76805-4 0  5189
2 22826 098.6645 205.9426 0009258 028.4442 331.7244 14.30049159 94054
Epoch (UTC): 17 September 2014 02:42:35
Eccentricity: 0.0009258
inclination: 98.6645°
perigee height: 785 km
apogee height: 798 km
right ascension of ascending node: 205.9426°
argument of perigee: 28.4442°
revolutions per day: 14.30049159
mean anomaly at epoch: 331.7244°
orbit number at epoch: 9405

The dashed part of the orbit path shows where the satellite is in the earth's shadow,  

DLR